KD4WXI Weather Reports


Display with metric or nautical units.
time (UTC)temp
F
wind
direction
speed
MPH
gust
MPH
rain 1hr
in
rain 24hr
in
rain mn
in
humidity
%
barometer
mb
20260510212853 79 340 0.0 0.0 0.00 0.00 0.00 35 1015.0
20260510212350 79 276 0.0 1.0 0.00 0.00 0.00 32 1015.3
20260510211847 79 264 1.0 1.0 0.00 0.00 0.00 34 1015.3
20260510211344 79 257 1.0 1.0 0.00 0.00 0.00 32 1015.3
20260510210839 79 310 0.0 0.0 0.00 0.00 0.00 37 1015.0
20260510210334 79 344 0.0 0.0 0.00 0.00 0.00 35 1015.2
20260510205833 78 318 0.0 0.0 0.00 0.00 0.00 33 1015.2
20260510205329 79 328 0.0 0.0 0.00 0.00 0.00 39 1015.0
20260510204825 79 318 0.0 0.0 0.00 0.00 0.00 33 1015.3
20260510204322 80 2 0.0 0.0 0.00 0.00 0.00 34 1015.3
20260510203818 81 243 1.0 1.0 0.00 0.00 0.00 30 1015.0
20260510203316 80 329 0.0 0.0 0.00 0.00 0.00 32 1015.0
20260510202816 81 283 1.0 2.0 0.00 0.00 0.00 32 1015.4
20260510202312 82 331 0.0 1.0 0.00 0.00 0.00 31 1015.4
20260510201809 83 288 1.0 2.0 0.00 0.00 0.00 34 1015.5
20260510201306 83 314 0.0 0.0 0.00 0.00 0.00 27 1015.4
20260510200802 84 320 0.0 1.0 0.00 0.00 0.00 33 1015.4
20260510200300 84 276 0.0 1.0 0.00 0.00 0.00 31 1015.8
20260510195756 84 206 1.0 2.0 0.00 0.00 0.00 32 1015.6
20260510195253 84 306 1.0 2.0 0.00 0.00 0.00 31 1015.7
20260510194752 84 333 0.0 0.0 0.00 0.00 0.00 33 1015.5
20260510194250 85 339 0.0 1.0 0.00 0.00 0.00 30 1015.6
20260510193745 86 297 1.0 1.0 0.00 0.00 0.00 35 1015.7
20260510193240 85 292 0.0 0.0 0.00 0.00 0.00 36 1015.8
20260510192736 84 1 1.0 1.0 0.00 0.00 0.00 32 1015.6
20260510192231 84 294 2.0 2.0 0.00 0.00 0.00 38 1015.6
20260510191728 84 347 0.0 0.0 0.00 0.00 0.00 29 1015.7
20260510191224 83 314 0.0 0.0 0.00 0.00 0.00 28 1016.1
20260510190722 84 48 1.0 1.0 0.00 0.00 0.00 29 1016.1
20260510190219 83 282 1.0 1.0 0.00 0.00 0.00 34 1015.9
20260510185715 83 333 2.0 2.0 0.00 0.00 0.00 33 1015.9
20260510185214 82 350 1.0 2.0 0.00 0.00 0.00 33 1016.0
20260510184710 83 18 2.0 3.0 0.00 0.00 0.00 30 1016.1
20260510184207 85 257 1.0 2.0 0.00 0.00 0.00 30 1016.1
20260510183702 84 317 0.0 1.0 0.00 0.00 0.00 38 1016.1
20260510183156 84 31 0.0 1.0 0.00 0.00 0.00 27 1016.2
20260510182654 83 344 1.0 1.0 0.00 0.00 0.00 30 1016.0
20260510182149 82 352 1.0 1.0 0.00 0.00 0.00 28 1016.1
20260510181647 82 320 2.0 3.0 0.00 0.00 0.00 29 1016.2
20260510181143 82 343 2.0 2.0 0.00 0.00 0.00 28 1016.2
20260510180639 81 55 0.0 0.0 0.00 0.00 0.00 34 1016.1
20260510180137 82 350 0.0 1.0 0.00 0.00 0.00 29 1016.3
20260510175632 82 334 0.0 0.0 0.00 0.00 0.00 30 1016.5
20260510175128 82 221 2.0 3.0 0.00 0.00 0.00 27 1016.6
20260510174626 83 67 2.0 2.0 0.00 0.00 0.00 32 1016.6
20260510174124 83 293 0.0 0.0 0.00 0.00 0.00 35 1016.7
20260510173619 82 290 0.0 0.0 0.00 0.00 0.00 26 1016.6
20260510173115 82 74 2.0 2.0 0.00 0.00 0.00 29 1016.7
20260510172611 83 310 0.0 0.0 0.00 0.00 0.00 28 1016.7
20260510172108 82 323 1.0 1.0 0.00 0.00 0.00 30 1016.9
20260510171604 82 43 3.0 3.0 0.00 0.00 0.00 27 1017.0
20260510171102 81 248 1.0 2.0 0.00 0.00 0.00 30 1017.0
20260510170558 82 254 2.0 2.0 0.00 0.00 0.00 31 1016.7
20260510170055 83 320 0.0 0.0 0.00 0.00 0.00 29 1016.9
20260510165550 83 316 0.0 0.0 0.00 0.00 0.00 38 1017.0
20260510165047 83 322 0.0 1.0 0.00 0.00 0.00 34 1016.7
20260510164544 82 301 0.0 1.0 0.00 0.00 0.00 39 1016.8
20260510164040 80 309 0.0 0.0 0.00 0.00 0.00 40 1016.9
20260510163536 81 262 0.0 1.0 0.00 0.00 0.00 41 1016.8
20260510163032 81 318 0.0 0.0 0.00 0.00 0.00 36 1017.0
20260510162527 80 196 0.0 1.0 0.00 0.00 0.00 38 1016.9
20260510162024 81 259 1.0 1.0 0.00 0.00 0.00 38 1017.1
20260510161520 80 334 0.0 0.0 0.00 0.00 0.00 37 1017.1
20260510161017 79 357 0.0 1.0 0.00 0.00 0.00 40 1017.0
20260510160509 79 303 0.0 1.0 0.00 0.00 0.00 39 1017.0
20260510160008 79 326 1.0 1.0 0.00 0.00 0.00 35 1017.3
20260510155504 79 24 1.0 2.0 0.00 0.00 0.00 41 1017.1
20260510155001 79 26 1.0 2.0 0.00 0.00 0.00 42 1017.3
20260510154457 79 341 0.0 1.0 0.00 0.00 0.00 44 1017.0
20260510153956 79 13 0.0 1.0 0.00 0.00 0.00 41 1017.0
20260510153452 78 52 1.0 2.0 0.00 0.00 0.00 45 1017.2
20260510152949 78 36 0.0 0.0 0.00 0.00 0.00 42 1017.2
20260510152446 77 24 1.0 2.0 0.00 0.00 0.00 42 1017.1
20260510151943 78 32 3.0 5.0 0.00 0.00 0.00 44 1017.1
20260510151440 77 350 0.0 0.0 0.00 0.00 0.00 42 1017.3
20260510150936 78 45 1.0 2.0 0.00 0.00 0.00 43 1017.1
20260510150432 77 346 0.0 0.0 0.00 0.00 0.00 48 1017.0
20260510145928 76 359 0.0 1.0 0.00 0.00 0.00 45 1017.2
20260510145425 77 52 2.0 2.0 0.00 0.00 0.00 44 1017.3
20260510144921 76 343 0.0 1.0 0.00 0.00 0.00 45 1017.3
20260510144419 78 35 1.0 2.0 0.00 0.00 0.00 50 1017.2
20260510143919 77 323 0.0 0.0 0.00 0.00 0.00 58 1017.5
20260510143415 76 318 0.0 1.0 0.00 0.00 0.00 58 1017.4
20260510142912 76 287 1.0 1.0 0.00 0.00 0.00 56 1017.5
20260510142409 75 54 1.0 1.0 0.00 0.00 0.00 54 1017.4
20260510141905 75 37 0.0 1.0 0.00 0.00 0.00 53 1017.4
20260510141403 75 331 0.0 1.0 0.00 0.00 0.00 56 1017.4
20260510140900 75 7 1.0 1.0 0.00 0.00 0.00 60 1017.3
20260510140356 74 342 1.0 1.0 0.00 0.00 0.00 56 1017.2
20260510135855 74 42 1.0 1.0 0.00 0.00 0.00 61 1017.3
20260510135351 74 346 1.0 1.0 0.00 0.00 0.00 61 1017.3
20260510134849 75 212 1.0 1.0 0.00 0.00 0.00 64 1017.1
20260510134345 74 310 1.0 1.0 0.00 0.00 0.00 72 1017.5
20260510133841 74 2 0.0 0.0 0.00 0.00 0.00 69 1017.3
20260510133337 71 336 0.0 0.0 0.00 0.00 0.00 73 1017.1
20260510132833 71 2 0.0 0.0 0.00 0.00 0.00 75 1017.3
20260510132332 71 283 1.0 1.0 0.00 0.00 0.00 76 1017.3
20260510131828 71 336 0.0 0.0 0.00 0.00 0.00 73 1017.2
20260510131326 71 31 1.0 1.0 0.00 0.00 0.00 76 1016.9
20260510130822 71 8 0.0 0.0 0.00 0.00 0.00 76 1017.2
20260510130319 68 3 0.0 0.0 0.00 0.00 0.00 79 1017.0
20260510125815 67 293 0.0 0.0 0.00 0.00 0.00 83 1017.1
20260510125311 66 14 0.0 0.0 0.00 0.00 0.00 85 1016.9
20260510124809 64 279 0.0 0.0 0.00 0.00 0.00 89 1017.1
20260510124306 64 289 0.0 0.0 0.00 0.00 0.00 90 1017.2
20260510123801 63 294 0.0 0.0 0.00 0.00 0.00 91 1016.9
20260510123257 63 300 0.0 0.0 0.00 0.00 0.00 91 1016.8
20260510122753 62 338 0.0 0.0 0.00 0.00 0.00 91 1017.0
20260510122250 62 339 0.0 0.0 0.00 0.00 0.00 93 1016.7
20260510121746 61 327 0.0 0.0 0.00 0.00 0.00 94 1016.7
20260510121244 60 338 0.0 0.0 0.00 0.00 0.00 93 1016.6
20260510120741 60 8 0.0 0.0 0.00 0.00 0.00 96 1016.8
20260510120237 59 5 0.0 0.0 0.00 0.00 0.00 99 1016.2
20260510115733 59 4 0.0 0.0 0.00 0.00 0.00 99 1016.3
20260510115232 58 15 0.0 0.0 0.00 0.00 0.00 99 1016.1
20260510114726 56 12 0.0 0.0 0.00 0.00 0.00 99 1016.0
20260510114224 55 12 0.0 0.0 0.00 0.00 0.00 99 1016.1
20260510113719 54 357 0.0 0.0 0.00 0.00 0.00 99 1016.1
20260510113216 53 357 0.0 0.0 0.00 0.00 0.00 99 1016.1
20260510112712 53 357 0.0 0.0 0.00 0.00 0.00 99 1015.8
20260510112210 52 357 0.0 0.0 0.00 0.00 0.00 99 1015.7
20260510111705 52 357 0.0 0.0 0.00 0.00 0.00 99 1015.7
20260510111203 52 357 0.0 0.0 0.00 0.00 0.00 99 1015.7
20260510110703 52 357 0.0 0.0 0.00 0.00 0.00 99 1015.5
20260510110201 51 357 0.0 0.0 0.00 0.00 0.00 99 1015.6
20260510105701 51 357 0.0 0.0 0.00 0.00 0.00 99 1015.4
20260510105201 51 357 0.0 0.0 0.00 0.00 0.00 99 1015.4
20260510104658 51 357 0.0 0.0 0.00 0.00 0.00 99 1015.2
20260510104154 52 356 0.0 0.0 0.00 0.00 0.00 99 1015.1
20260510103651 52 356 0.0 0.0 0.00 0.00 0.00 99 1015.0
20260510103148 51 356 0.0 0.0 0.00 0.00 0.00 99 1014.7
20260510102648 52 356 0.0 0.0 0.00 0.00 0.00 99 1014.9
20260510102145 52 356 0.0 0.0 0.00 0.00 0.00 99 1014.8
20260510101642 52 357 0.0 0.0 0.00 0.00 0.00 99 1014.9
20260510101140 52 357 0.0 0.0 0.00 0.00 0.00 99 1014.7
20260510100636 52 0 0.0 0.0 0.00 0.00 0.00 99 1014.8
20260510100134 52 0 0.0 0.0 0.00 0.00 0.00 99 1014.6
20260510095629 52 0 0.0 0.0 0.00 0.00 0.00 99 1014.7
20260510095124 53 1 0.0 0.0 0.00 0.00 0.00 99 1014.5
20260510094623 53 1 0.0 0.0 0.00 0.00 0.00 99 1014.5
20260510094119 53 1 0.0 0.0 0.00 0.00 0.00 99 1014.3
20260510093615 53 1 0.0 0.0 0.00 0.00 0.00 99 1014.2
20260510093112 53 1 0.0 0.0 0.00 0.00 0.00 99 1013.9
20260510092609 53 359 0.0 0.0 0.00 0.00 0.00 99 1014.2
20260510092109 54 350 0.0 0.0 0.00 0.00 0.00 99 1014.2
20260510091605 53 350 0.0 0.0 0.00 0.00 0.00 99 1014.1
20260510091101 54 350 0.0 0.0 0.00 0.00 0.00 99 1014.2
20260510090559 54 350 0.0 0.0 0.00 0.00 0.00 99 1014.1
20260510090054 54 355 0.0 0.0 0.00 0.00 0.00 99 1014.1
20260510085549 54 355 0.0 0.0 0.00 0.00 0.00 99 1013.7
20260510085046 54 355 0.0 0.0 0.00 0.00 0.00 99 1013.9
20260510084542 54 355 0.0 0.0 0.00 0.00 0.00 99 1013.9
20260510084039 55 355 0.0 0.0 0.00 0.00 0.00 99 1013.7
20260510083536 55 355 0.0 0.0 0.00 0.00 0.00 99 1013.6
20260510083032 56 355 0.0 0.0 0.00 0.00 0.00 99 1013.7
20260510082529 55 355 0.0 0.0 0.00 0.00 0.00 99 1013.4
20260510082024 55 355 0.0 0.0 0.00 0.00 0.00 99 1013.6
20260510081519 55 355 0.0 0.0 0.00 0.00 0.00 99 1013.4
20260510081016 55 353 0.0 0.0 0.00 0.00 0.00 99 1013.5
20260510080514 55 333 0.0 0.0 0.00 0.00 0.00 99 1013.6
20260510080012 56 333 0.0 0.0 0.00 0.00 0.00 99 1013.6
20260510075509 56 346 0.0 0.0 0.00 0.00 0.00 99 1013.0
20260510075006 57 346 0.0 0.0 0.00 0.00 0.00 99 1013.3
20260510074504 56 345 0.0 0.0 0.00 0.00 0.00 99 1013.2
20260510073959 56 345 0.0 0.0 0.00 0.00 0.00 99 1013.3
20260510073455 56 345 0.0 0.0 0.00 0.00 0.00 99 1013.2
20260510072951 56 345 0.0 0.0 0.00 0.00 0.00 99 1013.3
20260510072448 56 345 0.0 0.0 0.00 0.00 0.00 99 1013.0
20260510071944 56 345 0.0 0.0 0.00 0.00 0.00 99 1013.2
20260510071440 56 345 0.0 0.0 0.00 0.00 0.00 99 1012.9
20260510070938 56 345 0.0 0.0 0.00 0.00 0.00 99 1013.0
20260510070436 56 345 0.0 0.0 0.00 0.00 0.00 99 1012.9
20260510065931 56 345 0.0 0.0 0.00 0.00 0.00 99 1013.1
20260510065428 56 345 0.0 0.0 0.00 0.00 0.00 99 1013.2
20260510064924 56 345 0.0 0.0 0.00 0.00 0.00 99 1013.2
20260510064422 57 345 0.0 0.0 0.00 0.00 0.00 99 1013.0
20260510063919 58 345 0.0 0.0 0.00 0.00 0.00 99 1013.1
20260510063414 58 345 0.0 0.0 0.00 0.00 0.00 99 1013.0
20260510062913 57 345 0.0 0.0 0.00 0.00 0.00 99 1013.0
20260510062408 57 345 0.0 0.0 0.00 0.00 0.00 99 1013.1
20260510061903 58 345 0.0 0.0 0.00 0.00 0.00 99 1013.1
20260510061400 58 345 0.0 0.0 0.00 0.00 0.00 99 1013.1
20260510060855 58 345 0.0 0.0 0.00 0.00 0.00 99 1013.0
20260510060353 58 345 0.0 0.0 0.00 0.00 0.00 99 1013.0
20260510055849 58 345 0.0 0.0 0.00 0.00 0.00 99 1013.0
20260510055349 58 345 0.0 0.0 0.00 0.00 0.00 99 1013.3
20260510054848 58 345 0.0 0.0 0.00 0.00 0.00 99 1013.0
20260510054344 59 345 0.0 0.0 0.00 0.00 0.00 99 1013.2
20260510053839 59 345 0.0 0.0 0.00 0.00 0.00 99 1013.2
20260510053334 59 345 0.0 0.0 0.00 0.00 0.00 99 1013.0
20260510052831 59 345 0.0 0.0 0.00 0.00 0.00 99 1013.2
20260510052327 59 345 0.0 0.0 0.00 0.00 0.00 99 1013.3
20260510051823 59 345 0.0 0.0 0.00 0.00 0.00 99 1013.4
20260510051320 59 345 0.0 0.0 0.00 0.00 0.00 99 1013.3
20260510050817 59 345 0.0 0.0 0.00 0.00 0.00 99 1013.4
20260510050314 59 345 0.0 0.0 0.00 0.00 0.00 98 1013.7
20260510045811 60 345 0.0 0.0 0.00 0.00 0.00 98 1013.5
20260510045307 60 345 0.0 0.0 0.00 0.00 0.00 98 1013.4
20260510044805 60 345 0.0 0.0 0.00 0.00 0.00 98 1013.4
20260510044302 60 345 0.0 0.0 0.00 0.00 0.00 98 1013.3
20260510043758 60 340 0.0 0.0 0.00 0.00 0.00 98 1013.5
20260510043254 60 340 0.0 0.0 0.00 0.00 0.00 98 1013.3
20260510042752 60 340 0.0 0.0 0.00 0.00 0.00 97 1013.5
20260510042247 60 340 0.0 0.0 0.00 0.00 0.00 97 1013.4
20260510041744 60 340 0.0 0.0 0.00 0.00 0.00 97 1013.6
20260510041242 60 340 0.0 0.0 0.00 0.00 0.00 96 1013.5
20260510040739 61 339 0.0 0.0 0.00 0.00 0.00 96 1013.5
20260510040236 61 348 0.0 0.0 0.00 0.00 0.00 95 1013.6
20260510035731 61 348 0.0 0.0 0.00 0.01 0.01 95 1013.5
20260510035227 62 347 0.0 0.0 0.00 0.01 0.01 95 1013.6
20260510034722 62 347 0.0 0.0 0.00 0.01 0.01 96 1013.5
20260510034221 62 347 0.0 0.0 0.00 0.01 0.01 96 1013.6
20260510033716 61 347 0.0 0.0 0.00 0.01 0.01 95 1013.6
20260510033215 62 347 0.0 0.0 0.00 0.01 0.01 95 1013.6
20260510032711 62 347 0.0 0.0 0.00 0.01 0.01 95 1013.6
20260510032207 62 347 0.0 0.0 0.00 0.01 0.01 94 1013.6
20260510031701 62 348 0.0 0.0 0.00 0.01 0.01 93 1013.5
20260510031158 62 347 0.0 0.0 0.00 0.01 0.01 93 1013.3
20260510030652 62 347 0.0 0.0 0.00 0.01 0.01 93 1013.5
20260510030150 62 347 0.0 0.0 0.00 0.01 0.01 93 1013.5
20260510025647 63 347 0.0 0.0 0.00 0.01 0.01 92 1013.5
20260510025144 63 347 0.0 0.0 0.00 0.01 0.01 92 1013.5
20260510024641 63 347 0.0 0.0 0.00 0.01 0.01 91 1013.2
20260510024137 63 348 0.0 0.0 0.00 0.01 0.01 91 1013.2
20260510023633 63 347 0.0 0.0 0.00 0.01 0.01 91 1013.2
20260510023131 63 347 0.0 0.0 0.00 0.01 0.01 91 1013.3
20260510022631 63 347 0.0 0.0 0.00 0.01 0.01 91 1013.3
20260510022126 63 347 0.0 0.0 0.00 0.01 0.01 91 1013.2
20260510021622 64 343 0.0 0.0 0.00 0.01 0.01 90 1013.1
20260510021120 63 343 0.0 0.0 0.00 0.01 0.01 90 1012.9
20260510020619 64 343 0.0 0.0 0.00 0.01 0.01 90 1013.0
20260510020115 64 343 0.0 0.0 0.00 0.01 0.01 90 1013.0
20260510015612 64 343 0.0 0.0 0.00 0.01 0.01 90 1012.9
20260510015108 64 343 0.0 0.0 0.00 0.01 0.01 88 1012.9
20260510014604 64 343 0.0 0.0 0.00 0.01 0.01 89 1012.8
20260510014102 64 337 0.0 0.0 0.00 0.01 0.01 89 1012.8
20260510013602 65 337 0.0 0.0 0.00 0.01 0.01 88 1012.6
20260510013058 65 337 0.0 0.0 0.00 0.01 0.01 88 1012.7
20260510012557 65 337 0.0 0.0 0.00 0.01 0.01 88 1012.4
20260510012054 65 336 0.0 0.0 0.00 0.01 0.01 88 1012.7
20260510011553 65 347 0.0 0.0 0.00 0.01 0.01 88 1012.6
20260510011049 65 347 0.0 0.0 0.00 0.01 0.01 87 1012.3
20260510010546 64 343 0.0 0.0 0.00 0.01 0.01 88 1012.4
20260510010043 64 351 0.0 0.0 0.00 0.01 0.01 88 1011.9
20260510005539 65 341 0.0 0.0 0.00 0.01 0.01 88 1012.1
20260510005037 65 340 0.0 0.0 0.00 0.01 0.01 88 1011.9
20260510004534 65 340 0.0 0.0 0.00 0.01 0.01 88 1011.9
20260510004032 66 340 0.0 0.0 0.00 0.01 0.01 86 1011.9
20260510003529 66 340 0.0 0.0 0.00 0.01 0.01 84 1011.5
20260510003024 66 340 0.0 0.0 0.00 0.01 0.01 82 1011.8
20260510002520 67 340 0.0 0.0 0.00 0.01 0.01 82 1011.7
20260510002017 67 340 0.0 0.0 0.00 0.01 0.01 81 1011.6
20260510001514 67 340 0.0 0.0 0.00 0.01 0.01 80 1011.5
20260510001012 68 339 0.0 0.0 0.00 0.01 0.01 80 1011.4
20260510000513 68 335 0.0 0.0 0.00 0.01 0.01 80 1011.3
20260510000010 68 327 0.0 0.0 0.00 0.01 0.01 80 1011.4
20260509235506 69 327 0.0 0.0 0.00 0.01 0.01 78 1011.1
20260509235002 69 327 0.0 0.0 0.00 0.01 0.01 77 1011.3
20260509234459 69 320 0.0 0.0 0.00 0.01 0.01 76 1011.2
20260509233957 69 331 0.0 0.0 0.00 0.01 0.01 76 1011.2
20260509233454 69 329 0.0 0.0 0.00 0.01 0.01 76 1011.2
20260509232950 70 306 0.0 0.0 0.00 0.01 0.01 76 1011.2
20260509232448 70 307 0.0 1.0 0.00 0.01 0.01 75 1011.2
20260509231944 70 328 0.0 0.0 0.00 0.01 0.01 74 1011.2
20260509231441 70 309 0.0 1.0 0.00 0.01 0.01 75 1011.2
20260509230939 70 309 0.0 1.0 0.00 0.01 0.01 74 1011.4
20260509230435 70 279 1.0 1.0 0.00 0.01 0.01 74 1011.1
20260509225931 71 268 1.0 1.0 0.00 0.01 0.01 75 1010.7
20260509225428 71 274 0.0 0.0 0.00 0.01 0.01 73 1010.7
20260509224924 71 259 0.0 0.0 0.00 0.01 0.01 72 1011.0
20260509224419 71 314 1.0 1.0 0.00 0.01 0.01 73 1011.0
20260509223917 71 203 2.0 2.0 0.00 0.01 0.01 72 1010.8
20260509223414 71 308 0.0 1.0 0.00 0.01 0.01 73 1010.7
20260509222911 71 224 1.0 1.0 0.00 0.01 0.01 72 1010.7
20260509222406 72 266 2.0 2.0 0.00 0.01 0.01 71 1010.6
20260509221901 71 196 1.0 1.0 0.00 0.01 0.01 73 1010.4
20260509221359 71 264 1.0 1.0 0.00 0.01 0.01 72 1010.6
20260509220855 72 306 0.0 1.0 0.00 0.01 0.01 71 1010.6
20260509220351 72 283 0.0 0.0 0.00 0.01 0.01 70 1010.5
20260509215847 72 301 0.0 1.0 0.00 0.01 0.01 71 1010.3
20260509215343 71 296 1.0 1.0 0.00 0.01 0.01 71 1010.5
20260509214840 71 271 1.0 1.0 0.00 0.01 0.01 71 1010.6
20260509214338 72 206 1.0 2.0 0.00 0.01 0.01 70 1010.6
20260509213835 72 243 2.0 2.0 0.00 0.01 0.01 70 1010.4
20260509213330 71 323 1.0 2.0 0.00 0.01 0.01 69 1010.7